Total_Precipitation_Accumulation
0.35 0.29 0.39 0.45 0.41 0.45 0.62 0.61 0.54 0.33 0.31 0.32 0.32 0.36 0.38 0.42 0.42 0.43 0.44 0.50 0.63 0.73 0.72 0.72 0.74 0.74 0.70 0.73 0.85 0.92 0.89 0.99 1.07 1.17 1.24 1.22 1.19 1.20 1.26 1.35 1.41 1.45 1.45 1.39
0.36 0.22 0.28 0.35 0.29 0.30 0.34 0.31 0.29 0.23 0.27 0.30 0.30 0.29 0.31 0.32 0.37 0.41 0.42 0.46 0.53 0.61 0.67 0.75 0.82 0.84 0.80 0.77 0.82 0.90 0.89 0.94 0.98 1.09 1.21 1.23 1.17 1.20 1.29 1.36 1.36 1.38 1.40 1.39
0.64 0.28 0.50 0.57 0.36 0.32 0.33 0.31 0.29 0.33 0.35 0.29 0.27 0.29 0.35 0.35 0.37 0.39 0.40 0.42 0.43 0.53 0.65 0.72 0.80 0.82 0.83 0.81 0.83 0.89 0.89 0.91 0.96 1.08 1.12 1.19 1.18 1.21 1.30 1.38 1.38 1.37 1.34 1.34
1.04 0.73 1.01 0.54 0.27 0.27 0.32 0.33 0.31 0.31 0.26 0.27 0.30 0.33 0.39 0.39 0.41 0.41 0.42 0.44 0.43 0.51 0.62 0.65 0.71 0.74 0.77 0.74 0.86 0.91 0.90 0.89 0.94 1.02 1.05 1.14 1.19 1.21 1.32 1.39 1.35 1.34 1.34 1.30
1.42 1.01 0.54 0.31 0.28 0.37 0.46 0.46 0.34 0.27 0.20 0.19 0.23 0.29 0.38 0.35 0.38 0.42 0.43 0.47 0.49 0.52 0.60 0.58 0.64 0.69 0.74 0.70 0.79 0.88 0.91 0.87 0.88 0.95 1.00 1.09 1.14 1.21 1.30 1.40 1.35 1.30 1.28 1.31
1.55 1.14 0.57 0.38 0.25 0.29 0.42 0.59 0.34 0.25 0.23 0.22 0.26 0.42 0.44 0.38 0.37 0.37 0.37 0.43 0.49 0.51 0.54 0.55 0.59 0.63 0.65 0.70 0.74 0.82 0.89 0.80 0.83 0.88 0.92 1.02 1.08 1.16 1.23 1.26 1.28 1.29 1.24 1.23
1.29 1.03 0.43 0.29 0.26 0.31 0.65 0.72 0.37 0.30 0.31 0.31 0.40 0.47 0.42 0.40 0.40 0.41 0.41 0.42 0.45 0.47 0.51 0.55 0.57 0.58 0.60 0.68 0.74 0.77 0.86 0.80 0.82 0.84 0.87 0.96 1.04 1.06 1.13 1.19 1.20 1.26 1.25 1.21
0.99 1.08 0.56 0.32 0.38 0.64 0.75 0.42 0.33 0.32 0.31 0.33 0.35 0.33 0.32 0.35 0.41 0.48 0.47 0.43 0.44 0.46 0.49 0.51 0.53 0.57 0.59 0.63 0.69 0.75 0.80 0.80 0.85 0.88 0.89 0.92 0.97 0.98 1.02 1.13 1.18 1.21 1.25 1.27
0.84 0.69 0.46 0.40 0.50 0.53 0.44 0.37 0.30 0.30 0.31 0.33 0.32 0.31 0.35 0.38 0.42 0.49 0.50 0.46 0.46 0.49 0.48 0.49 0.52 0.57 0.64 0.66 0.67 0.75 0.78 0.78 0.83 0.91 0.93 0.94 0.93 0.95 0.99 1.06 1.15 1.19 1.19 1.20
0.55 0.40 0.31 0.30 0.31 0.30 0.28 0.30 0.28 0.29 0.31 0.33 0.32 0.31 0.36 0.38 0.42 0.46 0.47 0.49 0.50 0.52 0.51 0.51 0.52 0.57 0.66 0.69 0.67 0.72 0.76 0.77 0.80 0.85 0.91 0.95 0.91 0.87 0.89 0.99 1.12 1.14 1.14 1.09
0.42 0.28 0.26 0.25 0.24 0.24 0.22 0.20 0.21 0.22 0.23 0.26 0.29 0.31 0.36 0.39 0.42 0.48 0.49 0.52 0.52 0.54 0.56 0.57 0.55 0.60 0.66 0.69 0.67 0.71 0.70 0.69 0.74 0.76 0.85 0.95 0.94 0.89 0.88 0.90 1.08 1.19 1.13 1.08
0.39 0.27 0.33 0.28 0.22 0.23 0.22 0.21 0.22 0.24 0.22 0.20 0.24 0.30 0.33 0.35 0.39 0.48 0.53 0.53 0.53 0.55 0.57 0.61 0.60 0.62 0.66 0.68 0.65 0.65 0.66 0.65 0.68 0.71 0.77 0.86 0.90 0.92 1.01 1.00 1.03 1.03 1.03 1.08
0.29 0.22 0.23 0.22 0.20 0.21 0.23 0.22 0.21 0.23 0.24 0.22 0.21 0.25 0.29 0.33 0.36 0.44 0.49 0.52 0.55 0.59 0.60 0.62 0.63 0.65 0.67 0.66 0.66 0.65 0.65 0.65 0.67 0.70 0.73 0.79 0.80 0.80 0.93 1.04 1.07 1.01 0.96 0.99
0.17 0.18 0.18 0.16 0.18 0.19 0.21 0.20 0.18 0.19 0.21 0.21 0.21 0.22 0.25 0.28 0.31 0.39 0.50 0.54 0.55 0.56 0.58 0.60 0.61 0.67 0.72 0.72 0.72 0.68 0.67 0.72 0.74 0.71 0.73 0.77 0.76 0.74 0.77 0.85 0.93 0.98 0.99 0.99
0.13 0.16 0.17 0.15 0.16 0.18 0.21 0.20 0.18 0.19 0.20 0.21 0.20 0.22 0.23 0.27 0.31 0.42 0.50 0.52 0.53 0.53 0.56 0.59 0.61 0.68 0.71 0.77 0.77 0.70 0.70 0.73 0.76 0.74 0.75 0.78 0.77 0.75 0.76 0.78 0.81 0.87 0.94 1.02
0.16 0.15 0.15 0.15 0.17 0.20 0.23 0.24 0.23 0.23 0.24 0.24 0.24 0.25 0.25 0.27 0.30 0.38 0.46 0.51 0.54 0.57 0.60 0.60 0.65 0.73 0.78 0.81 0.82 0.76 0.77 0.85 0.86 0.80 0.79 0.82 0.83 0.83 0.82 0.81 0.83 0.83 0.87 0.95
0.21 0.19 0.18 0.18 0.18 0.21 0.26 0.29 0.28 0.26 0.26 0.26 0.26 0.26 0.25 0.26 0.27 0.31 0.40 0.48 0.55 0.59 0.61 0.64 0.70 0.74 0.79 0.84 0.85 0.83 0.83 0.87 0.94 0.86 0.81 0.87 0.92 0.92 0.88 0.89 0.89 0.86 0.83 0.91
0.21 0.22 0.21 0.21 0.21 0.22 0.24 0.27 0.27 0.26 0.27 0.27 0.26 0.24 0.25 0.28 0.30 0.34 0.40 0.45 0.48 0.50 0.55 0.64 0.72 0.76 0.78 0.85 0.88 0.86 0.85 0.88 0.91 0.89 0.87 0.92 0.98 0.97 0.95 0.95 0.94 0.92 0.88 0.92
0.15 0.17 0.17 0.18 0.18 0.19 0.22 0.25 0.25 0.24 0.25 0.25 0.26 0.27 0.29 0.31 0.33 0.36 0.38 0.39 0.43 0.49 0.57 0.65 0.75 0.72 0.74 0.83 0.92 0.89 0.88 0.92 0.95 0.95 0.90 0.99 1.03 1.00 0.99 0.97 0.96 0.92 0.94 0.94
0.14 0.15 0.17 0.17 0.16 0.17 0.20 0.21 0.23 0.23 0.24 0.26 0.27 0.29 0.31 0.32 0.34 0.36 0.37 0.40 0.47 0.59 0.62 0.69 0.71 0.72 0.75 0.78 0.87 0.89 0.94 0.95 0.97 0.98 0.96 0.96 1.00 1.04 1.02 1.00 0.98 0.97 0.98 1.00
0.17 0.17 0.19 0.19 0.18 0.18 0.20 0.21 0.24 0.25 0.24 0.28 0.31 0.33 0.34 0.33 0.35 0.38 0.40 0.43 0.46 0.55 0.62 0.71 0.74 0.79 0.81 0.85 0.90 0.93 0.99 0.99 1.01 1.04 1.03 1.02 1.02 1.04 1.03 1.03 1.02 0.99 0.99 1.01
0.23 0.23 0.24 0.24 0.23 0.22 0.22 0.23 0.26 0.29 0.29 0.33 0.35 0.36 0.35 0.34 0.36 0.39 0.42 0.48 0.51 0.62 0.68 0.71 0.79 0.92 0.99 0.98 0.91 0.94 0.99 1.00 1.02 1.05 1.06 1.04 1.04 1.07 1.05 1.04 1.06 1.03 0.99 1.00
0.28 0.29 0.29 0.29 0.27 0.26 0.25 0.26 0.29 0.33 0.36 0.38 0.39 0.39 0.40 0.39 0.40 0.44 0.48 0.49 0.54 0.68 0.75 0.81 0.95 1.06 1.10 0.99 0.93 0.95 0.99 1.00 1.02 1.05 1.08 1.07 1.06 1.07 1.07 1.05 1.06 1.04 1.02 1.00
0.32 0.33 0.34 0.34 0.32 0.30 0.31 0.33 0.34 0.39 0.43 0.44 0.45 0.46 0.47 0.46 0.45 0.46 0.52 0.58 0.65 0.76 0.82 0.91 1.03 1.09 1.11 1.01 0.96 0.98 1.01 1.01 1.01 1.05 1.08 1.08 1.10 1.10 1.08 1.07 1.08 1.02 0.97 0.96
0.36 0.36 0.35 0.36 0.37 0.38 0.38 0.39 0.40 0.43 0.45 0.47 0.47 0.48 0.51 0.52 0.54 0.54 0.55 0.60 0.70 0.77 0.82 0.89 0.98 1.04 1.05 1.03 0.99 1.01 1.03 1.05 1.07 1.12 1.12 1.12 1.11 1.10 1.09 1.05 1.03 1.01 0.98 0.94
0.40 0.40 0.40 0.41 0.44 0.45 0.45 0.44 0.47 0.48 0.49 0.49 0.50 0.51 0.54 0.56 0.58 0.59 0.61 0.64 0.70 0.77 0.80 0.85 0.91 0.98 1.01 1.02 1.01 1.03 1.04 1.09 1.12 1.10 1.07 1.08 1.07 1.07 1.06 1.02 0.97 0.96 0.95 0.92
0.45 0.44 0.44 0.45 0.47 0.49 0.51 0.51 0.53 0.56 0.56 0.56 0.57 0.56 0.56 0.59 0.61 0.64 0.65 0.68 0.73 0.77 0.81 0.85 0.90 0.96 1.01 1.04 1.06 1.08 1.08 1.07 1.07 1.08 1.08 1.06 1.04 1.04 1.02 1.00 0.98 0.95 0.93 0.91